Time,TemperatureF,DewpointF,PressureIn,WindDirection,WindDirectionDegrees,WindSpeedMPH,WindSpeedGustMPH,Humidity,HourlyPrecipIn,Conditions,Clouds,dailyrainin,SolarRadiationWatts/m^2,SoftwareType,DateUTC
2013-08-08 00:01:00,69.6,65.2,29.90,ENE,64,2.9,3.5,86,0.00,RA,,0.00,0.0,WeatherDisplay:10.37,2013-08-08 05:01:00,
2013-08-08 00:06:00,69.3,65.3,29.91,ENE,67,0.8,3.5,87,0.00,RA,,0.00,0.0,WeatherDisplay:10.37,2013-08-08 05:06:00,
2013-08-08 00:11:00,68.6,64.9,29.90,NE,53,0.0,0.0,88,0.00,CLR,,0.00,0.0,WeatherDisplay:10.37,2013-08-08 05:11:00,
2013-08-08 00:16:00,68.5,64.8,29.90,NE,37,0.0,0.0,88,0.00,CLR,,0.00,0.0,WeatherDisplay:10.37,2013-08-08 05:16:00,
2013-08-08 00:21:00,68.6,64.9,29.90,NNE,30,2.7,3.5,88,0.00,CLR,,0.00,0.0,WeatherDisplay:10.37,2013-08-08 05:21:00,
2013-08-08 00:26:00,68.8,65.1,29.90,NNE,25,2.1,3.5,88,0.00,CLR,,0.00,0.0,WeatherDisplay:10.37,2013-08-08 05:26:00,
2013-08-08 00:31:00,68.7,65.0,29.90,NE,39,1.9,3.5,88,0.00,CLR,,0.00,0.0,WeatherDisplay:10.37,2013-08-08 05:31:00,
2013-08-08 00:36:00,68.6,64.6,29.91,NE,34,1.1,3.5,87,0.00,CLR,,0.00,0.0,WeatherDisplay:10.37,2013-08-08 05:36:00,
2013-08-08 00:41:00,68.4,64.7,29.91,NNE,21,3.4,4.6,88,0.00,CLR,,0.00,0.0,WeatherDisplay:10.37,2013-08-08 05:41:00,
2013-08-08 00:46:00,68.5,64.8,29.91,NNE,22,3.1,4.6,88,0.00,CLR,,0.00,0.0,WeatherDisplay:10.37,2013-08-08 05:46:00,
2013-08-08 00:51:00,68.5,64.5,29.91,NNE,33,3.3,4.0,87,0.00,CLR,,0.00,0.0,WeatherDisplay:10.37,2013-08-08 05:51:00,
2013-08-08 00:56:00,68.5,64.5,29.91,NNE,28,2.5,3.5,87,0.00,CLR,,0.00,0.0,WeatherDisplay:10.37,2013-08-08 05:56:00,
2013-08-08 01:01:00,68.4,64.4,29.90,NNE,18,2.8,4.6,87,0.00,CLR,,0.00,0.0,WeatherDisplay:10.37,2013-08-08 06:01:00,
2013-08-08 01:06:00,68.3,64.3,29.90,NNE,30,2.1,3.5,87,0.00,CLR,,0.00,0.0,WeatherDisplay:10.37,2013-08-08 06:06:00,
2013-08-08 01:11:00,68.1,64.1,29.90,NNE,26,3.3,3.5,87,0.00,CLR,,0.00,0.0,WeatherDisplay:10.37,2013-08-08 06:11:00,
2013-08-08 01:16:00,68.0,64.0,29.90,NNE,31,2.6,3.0,87,0.00,CLR,,0.00,0.0,WeatherDisplay:10.37,2013-08-08 06:16:00,
2013-08-08 01:21:00,68.1,64.1,29.90,NNE,30,0.0,1.2,87,0.00,CLR,,0.00,0.0,WeatherDisplay:10.37,2013-08-08 06:21:00,
2013-08-08 01:26:00,67.5,63.8,29.90,NE,49,0.6,1.2,88,0.00,CLR,,0.00,0.0,WeatherDisplay:10.37,2013-08-08 06:26:00,
2013-08-08 01:31:00,67.1,63.7,29.90,NE,42,2.4,3.5,89,0.00,CLR,,0.00,0.0,WeatherDisplay:10.37,2013-08-08 06:31:00,
2013-08-08 01:36:00,67.2,63.8,29.90,NE,44,0.0,0.0,89,0.00,CLR,,0.00,0.0,WeatherDisplay:10.37,2013-08-08 06:36:00,
2013-08-08 01:41:00,66.6,63.6,29.91,NE,44,0.0,0.0,90,0.00,CLR,,0.00,0.0,WeatherDisplay:10.37,2013-08-08 06:41:00,
2013-08-08 01:46:00,66.5,63.5,29.91,NNE,28,2.5,3.5,90,0.00,CLR,,0.00,0.0,WeatherDisplay:10.37,2013-08-08 06:46:00,
2013-08-08 01:51:00,66.8,63.5,29.91,NNE,28,0.5,3.5,89,0.00,CLR,,0.00,0.0,WeatherDisplay:10.37,2013-08-08 06:51:00,
2013-08-08 01:56:00,67.0,63.3,29.91,NNE,15,3.7,4.6,88,0.00,CLR,,0.00,0.0,WeatherDisplay:10.37,2013-08-08 06:56:00,
2013-08-08 02:01:00,67.3,63.6,29.91,NNE,30,0.9,3.5,88,0.00,CLR,,0.00,0.0,WeatherDisplay:10.37,2013-08-08 07:01:00,
2013-08-08 02:06:00,67.4,63.4,29.92,NNE,30,1.5,2.3,87,0.00,CLR,,0.00,0.0,WeatherDisplay:10.37,2013-08-08 07:06:00,
2013-08-08 02:11:00,67.1,63.1,29.91,NNE,30,2.2,3.5,87,0.00,CLR,,0.00,0.0,WeatherDisplay:10.37,2013-08-08 07:11:00,
2013-08-08 02:16:00,67.0,63.3,29.92,NNE,30,0.0,0.0,88,0.00,CLR,,0.00,0.0,WeatherDisplay:10.37,2013-08-08 07:16:00,
2013-08-08 02:21:00,66.9,63.2,29.92,NNE,29,1.9,3.5,88,0.00,CLR,,0.00,0.0,WeatherDisplay:10.37,2013-08-08 07:21:00,
2013-08-08 02:26:00,66.9,63.2,29.92,NNE,29,0.0,0.0,88,0.00,CLR,,0.00,0.0,WeatherDisplay:10.37,2013-08-08 07:26:00,
2013-08-08 02:31:00,66.8,63.1,29.92,NNE,29,0.0,0.0,88,0.00,CLR,,0.00,0.0,WeatherDisplay:10.37,2013-08-08 07:31:00,
2013-08-08 02:36:00,66.3,63.3,29.92,NNE,29,0.0,0.0,90,0.00,CLR,,0.00,0.0,WeatherDisplay:10.37,2013-08-08 07:36:00,
2013-08-08 02:41:00,65.7,63.0,29.91,NNE,29,0.0,0.0,91,0.00,CLR,,0.00,0.0,WeatherDisplay:10.37,2013-08-08 07:41:00,
2013-08-08 02:46:00,65.2,62.8,29.91,NNE,29,0.0,0.0,92,0.00,CLR,,0.00,0.0,WeatherDisplay:10.37,2013-08-08 07:46:00,
2013-08-08 02:51:00,64.8,62.7,29.91,NNE,29,0.0,0.0,93,0.00,CLR,,0.00,0.0,WeatherDisplay:10.37,2013-08-08 07:51:00,
2013-08-08 02:56:00,64.4,62.3,29.91,NNE,29,0.0,0.0,93,0.00,CLR,,0.00,0.0,WeatherDisplay:10.37,2013-08-08 07:56:00,
2013-08-08 03:01:00,64.0,62.2,29.91,NNE,29,0.0,0.0,94,0.00,CLR,,0.00,0.0,WeatherDisplay:10.37,2013-08-08 08:01:00,
2013-08-08 03:06:00,63.8,62.3,29.91,NNE,29,0.0,0.0,95,0.00,CLR,,0.00,0.0,WeatherDisplay:10.37,2013-08-08 08:06:00,
2013-08-08 03:11:00,63.7,62.2,29.92,NNE,29,0.0,0.0,95,0.00,CLR,,0.00,0.0,WeatherDisplay:10.37,2013-08-08 08:11:00,
2013-08-08 03:16:00,63.6,62.1,29.92,NNE,29,0.0,0.0,95,0.00,CLR,,0.00,0.0,WeatherDisplay:10.37,2013-08-08 08:16:00,
2013-08-08 03:21:00,63.4,61.9,29.92,NNE,29,0.0,0.0,95,0.00,CLR,,0.00,0.0,WeatherDisplay:10.37,2013-08-08 08:21:00,
2013-08-08 03:26:00,63.3,61.8,29.92,NNE,29,0.0,0.0,95,0.00,CLR,,0.00,0.0,WeatherDisplay:10.37,2013-08-08 08:26:00,
2013-08-08 03:31:00,63.1,61.9,29.92,NE,38,1.0,3.5,96,0.00,BKN,,0.00,0.0,WeatherDisplay:10.37,2013-08-08 08:31:00,
2013-08-08 03:36:00,63.2,62.0,29.92,NE,56,1.8,3.5,96,0.00,BKN,,0.00,0.0,WeatherDisplay:10.37,2013-08-08 08:36:00,
2013-08-08 03:41:00,63.7,62.5,29.92,NE,52,2.0,3.5,96,0.00,BKN,,0.00,0.0,WeatherDisplay:10.37,2013-08-08 08:41:00,
2013-08-08 03:46:00,64.0,62.5,29.92,ENE,66,3.0,4.6,95,0.00,BKN,,0.00,0.0,WeatherDisplay:10.37,2013-08-08 08:46:00,
2013-08-08 03:51:00,64.6,62.8,29.92,ENE,63,2.9,5.8,94,0.00,BKN,,0.00,0.0,WeatherDisplay:10.37,2013-08-08 08:51:00,
2013-08-08 03:56:00,65.1,63.0,29.92,ENE,69,3.6,4.0,93,0.00,BKN,,0.00,0.0,WeatherDisplay:10.37,2013-08-08 08:56:00,
2013-08-08 04:01:00,65.6,63.2,29.92,ENE,65,2.2,3.5,92,0.00,OVC,,0.00,0.0,WeatherDisplay:10.37,2013-08-08 09:01:00,
2013-08-08 04:06:00,66.0,63.3,29.92,ENE,65,3.0,4.6,91,0.00,OVC,,0.00,0.0,WeatherDisplay:10.37,2013-08-08 09:06:00,
2013-08-08 04:11:00,66.2,63.5,29.92,NE,53,1.3,2.0,91,0.00,OVC,,0.00,0.0,WeatherDisplay:10.37,2013-08-08 09:11:00,
2013-08-08 04:16:00,66.3,63.3,29.91,NE,56,1.3,3.5,90,0.00,OVC,,0.00,0.0,WeatherDisplay:10.37,2013-08-08 09:16:00,
2013-08-08 04:21:00,66.2,63.2,29.91,ENE,66,2.9,4.0,90,0.00,OVC,,0.00,0.0,WeatherDisplay:10.37,2013-08-08 09:21:00,
2013-08-08 04:26:00,66.2,63.2,29.91,NE,45,1.8,4.6,90,0.00,OVC,,0.00,0.0,WeatherDisplay:10.37,2013-08-08 09:26:00,
2013-08-08 04:31:00,66.4,63.4,29.91,NE,42,1.2,3.5,90,0.00,OVC,,0.00,0.0,WeatherDisplay:10.37,2013-08-08 09:31:00,
2013-08-08 04:36:00,66.7,63.4,29.92,ENE,64,0.8,2.3,89,0.00,OVC,,0.00,0.0,WeatherDisplay:10.37,2013-08-08 09:36:00,
2013-08-08 04:41:00,66.6,63.6,29.92,ENE,64,0.0,0.0,90,0.00,OVC,,0.00,0.0,WeatherDisplay:10.37,2013-08-08 09:41:00,
2013-08-08 04:46:00,66.5,63.5,29.92,ENE,64,1.0,2.3,90,0.00,OVC,,0.00,0.0,WeatherDisplay:10.37,2013-08-08 09:46:00,
2013-08-08 04:51:00,66.5,63.5,29.92,ENE,69,2.4,4.6,90,0.00,OVC,,0.00,0.0,WeatherDisplay:10.37,2013-08-08 09:51:00,
2013-08-08 04:56:00,66.6,63.6,29.92,NE,44,1.8,3.5,90,0.00,OVC,,0.00,0.0,WeatherDisplay:10.37,2013-08-08 09:56:00,
2013-08-08 05:01:00,66.5,63.5,29.92,NE,44,0.0,3.5,90,0.00,BKN,,0.00,0.0,WeatherDisplay:10.37,2013-08-08 10:01:00,
2013-08-08 05:06:00,66.3,63.3,29.92,NE,44,1.4,2.0,90,0.00,BKN,,0.00,0.0,WeatherDisplay:10.37,2013-08-08 10:06:00,
2013-08-08 05:11:00,66.3,63.3,29.92,NE,44,0.4,3.5,90,0.00,BKN,,0.00,0.0,WeatherDisplay:10.37,2013-08-08 10:11:00,
2013-08-08 05:16:00,66.3,63.3,29.92,NE,55,2.6,4.6,90,0.00,BKN,,0.00,0.0,WeatherDisplay:10.37,2013-08-08 10:16:00,
2013-08-08 05:21:00,66.3,63.3,29.92,NE,55,0.9,3.5,90,0.00,BKN,,0.00,0.0,WeatherDisplay:10.37,2013-08-08 10:21:00,
2013-08-08 05:26:00,66.3,63.3,29.92,NE,55,1.1,2.3,90,0.00,BKN,,0.00,0.0,WeatherDisplay:10.37,2013-08-08 10:26:00,
2013-08-08 05:31:00,66.4,63.4,29.91,NE,54,0.9,3.5,90,0.00,CLR,,0.00,0.0,WeatherDisplay:10.37,2013-08-08 10:31:00,
2013-08-08 05:36:00,66.5,63.2,29.92,NE,42,3.7,4.6,89,0.00,CLR,,0.00,0.0,WeatherDisplay:10.37,2013-08-08 10:36:00,
2013-08-08 05:41:00,66.7,63.4,29.92,NE,53,2.0,3.5,89,0.00,CLR,,0.00,0.0,WeatherDisplay:10.37,2013-08-08 10:41:00,
2013-08-08 05:46:00,66.7,63.4,29.92,NE,53,1.6,3.5,89,0.00,CLR,,0.00,0.0,WeatherDisplay:10.37,2013-08-08 10:46:00,
2013-08-08 05:51:00,66.7,63.4,29.92,ENE,61,4.1,6.9,89,0.00,CLR,,0.00,0.0,WeatherDisplay:10.37,2013-08-08 10:51:00,
2013-08-08 05:56:00,66.7,63.4,29.92,NE,53,2.6,4.6,89,0.00,CLR,,0.00,0.0,WeatherDisplay:10.37,2013-08-08 10:56:00,
2013-08-08 06:01:00,66.6,63.3,29.92,ENE,62,2.8,3.5,89,0.00,SCT,,0.00,5.0,WeatherDisplay:10.37,2013-08-08 11:01:00,
2013-08-08 06:06:00,66.5,63.2,29.92,NE,49,2.9,4.6,89,0.00,SCT,,0.00,7.0,WeatherDisplay:10.37,2013-08-08 11:06:00,
2013-08-08 06:08:00,66.5,63.2,29.92,NNE,31,2.4,3.5,89,0.00,SCT,,0.00,9.0,WeatherDisplay:10.37,2013-08-08 11:08:00,
2013-08-08 06:13:00,66.5,63.2,29.92,NE,42,3.2,6.9,89,0.00,SCT,,0.00,12.0,WeatherDisplay:10.37,2013-08-08 11:13:00,
2013-08-08 06:18:00,66.7,63.4,29.91,NE,38,2.9,3.5,89,0.00,CLR,,0.00,16.0,WeatherDisplay:10.37,2013-08-08 11:18:00,
2013-08-08 06:23:00,66.7,63.4,29.91,NE,53,2.3,3.5,89,0.00,CLR,,0.00,23.0,WeatherDisplay:10.37,2013-08-08 11:23:00,
2013-08-08 06:28:00,66.8,63.5,29.92,NE,44,2.3,4.6,89,0.00,CLR,,0.00,32.0,WeatherDisplay:10.37,2013-08-08 11:28:00,
2013-08-08 06:33:00,66.9,63.6,29.92,ENE,60,3.8,4.6,89,0.00,CLR,,0.00,35.0,WeatherDisplay:10.37,2013-08-08 11:33:00,
2013-08-08 06:38:00,67.2,63.8,29.91,ENE,63,4.6,6.9,89,0.00,CLR,,0.00,39.0,WeatherDisplay:10.37,2013-08-08 11:38:00,
2013-08-08 06:43:00,67.2,63.8,29.92,NE,47,4.9,8.1,89,0.00,CLR,,0.00,46.0,WeatherDisplay:10.37,2013-08-08 11:43:00,
2013-08-08 06:48:00,67.5,64.1,29.92,ENE,74,5.0,6.9,89,0.00,SCT,,0.00,51.0,WeatherDisplay:10.37,2013-08-08 11:48:00,
2013-08-08 06:53:00,67.6,64.2,29.92,ENE,78,6.3,9.2,89,0.00,SCT,,0.00,54.0,WeatherDisplay:10.37,2013-08-08 11:53:00,
2013-08-08 06:58:00,67.9,64.5,29.92,ENE,59,7.6,11.5,89,0.00,SCT,,0.00,111.0,WeatherDisplay:10.37,2013-08-08 11:58:00,
2013-08-08 07:03:00,68.3,64.9,29.92,ENE,64,4.2,4.6,89,0.00,SCT,,0.00,83.0,WeatherDisplay:10.37,2013-08-08 12:03:00,
2013-08-08 07:08:00,68.3,64.9,29.92,ENE,73,3.8,10.4,89,0.00,SCT,,0.00,72.0,WeatherDisplay:10.37,2013-08-08 12:08:00,
2013-08-08 07:13:00,68.3,64.9,29.92,ENE,71,5.2,6.9,89,0.00,SCT,,0.00,65.0,WeatherDisplay:10.37,2013-08-08 12:13:00,
2013-08-08 07:18:00,68.2,64.8,29.93,ENE,62,8.4,12.7,89,0.00,SCT,,0.00,58.0,WeatherDisplay:10.37,2013-08-08 12:18:00,
2013-08-08 07:23:00,68.1,64.7,29.93,ENE,66,3.4,7.0,89,0.00,SCT,,0.00,69.0,WeatherDisplay:10.37,2013-08-08 12:23:00,
2013-08-08 07:28:00,68.0,64.6,29.93,NE,49,7.0,12.7,89,0.00,SCT,,0.00,76.0,WeatherDisplay:10.37,2013-08-08 12:28:00,
2013-08-08 07:33:00,68.0,64.6,29.94,ENE,76,5.9,8.0,89,0.00,CLR,,0.00,109.0,WeatherDisplay:10.37,2013-08-08 12:33:00,
2013-08-08 07:38:00,68.4,65.0,29.94,East,92,7.7,9.2,89,0.00,CLR,,0.00,216.0,WeatherDisplay:10.37,2013-08-08 12:38:00,
2013-08-08 07:43:00,68.9,65.2,29.94,East,82,5.1,8.1,88,0.00,CLR,,0.00,236.0,WeatherDisplay:10.37,2013-08-08 12:43:00,
2013-08-08 07:48:00,69.1,65.1,29.94,ENE,78,6.9,10.4,87,0.00,CLR,,0.00,220.0,WeatherDisplay:10.37,2013-08-08 12:48:00,
2013-08-08 07:53:00,69.1,65.1,29.95,ENE,71,5.7,8.1,87,0.00,CLR,,0.00,118.0,WeatherDisplay:10.37,2013-08-08 12:53:00,
2013-08-08 07:58:00,69.0,65.3,29.95,ENE,78,5.0,9.2,88,0.00,CLR,,0.00,125.0,WeatherDisplay:10.37,2013-08-08 12:58:00,
2013-08-08 08:03:00,69.4,65.7,29.95,ENE,76,4.9,6.9,88,0.00,CLR,,0.00,139.0,WeatherDisplay:10.37,2013-08-08 13:03:00,
2013-08-08 08:08:00,70.0,66.3,29.95,ENE,65,2.3,3.5,88,0.00,CLR,,0.00,323.0,WeatherDisplay:10.37,2013-08-08 13:08:00,
2013-08-08 08:13:00,70.4,66.0,29.96,ENE,58,4.3,5.8,86,0.00,CLR,,0.00,241.0,WeatherDisplay:10.37,2013-08-08 13:13:00,
2013-08-08 08:18:00,70.5,66.1,29.96,ENE,71,7.7,11.5,86,0.00,BKN,,0.00,197.0,WeatherDisplay:10.37,2013-08-08 13:18:00,
2013-08-08 08:23:00,70.3,65.9,29.96,ENE,69,2.4,7.0,86,0.00,BKN,,0.00,169.0,WeatherDisplay:10.37,2013-08-08 13:23:00,
2013-08-08 08:28:00,70.4,66.0,29.96,ENE,57,3.9,8.1,86,0.00,BKN,,0.00,190.0,WeatherDisplay:10.37,2013-08-08 13:28:00,
2013-08-08 08:33:00,70.6,65.5,29.96,ENE,67,6.4,9.2,84,0.00,SCT,,0.00,204.0,WeatherDisplay:10.37,2013-08-08 13:33:00,
2013-08-08 08:38:00,70.7,65.6,29.96,NE,49,6.7,9.2,84,0.00,SCT,,0.00,197.0,WeatherDisplay:10.37,2013-08-08 13:38:00,
2013-08-08 08:43:00,71.0,66.3,29.95,East,82,4.9,7.0,85,0.00,SCT,,0.00,520.0,WeatherDisplay:10.37,2013-08-08 13:43:00,
2013-08-08 08:48:00,72.0,66.9,29.96,East,88,5.9,9.2,84,0.00,SCT,,0.00,408.0,WeatherDisplay:10.37,2013-08-08 13:48:00,
2013-08-08 08:53:00,71.8,66.4,29.95,ENE,63,7.1,9.2,83,0.00,SCT,,0.00,185.0,WeatherDisplay:10.37,2013-08-08 13:53:00,
2013-08-08 08:58:00,72.2,66.7,29.95,ENE,71,7.1,11.0,83,0.00,SCT,,0.00,496.0,WeatherDisplay:10.37,2013-08-08 13:58:00,
2013-08-08 09:03:00,72.5,66.3,29.95,ENE,75,8.6,11.5,81,0.00,SCT,,0.00,445.0,WeatherDisplay:10.37,2013-08-08 14:03:00,
2013-08-08 09:08:00,72.3,66.1,29.95,NE,55,6.5,9.2,81,0.00,SCT,,0.00,459.0,WeatherDisplay:10.37,2013-08-08 14:08:00,
2013-08-08 09:13:00,72.3,66.1,29.95,NE,51,8.3,11.5,81,0.00,SCT,,0.00,459.0,WeatherDisplay:10.37,2013-08-08 14:13:00,
2013-08-08 09:18:00,72.9,66.4,29.95,ENE,76,9.9,13.8,80,0.00,SCT,,0.00,531.0,WeatherDisplay:10.37,2013-08-08 14:18:00,
2013-08-08 09:23:00,72.9,65.3,29.95,East,79,7.6,11.5,77,0.00,SCT,,0.00,536.0,WeatherDisplay:10.37,2013-08-08 14:23:00,
2013-08-08 09:28:00,73.3,66.0,29.95,ENE,66,8.3,13.0,78,0.00,SCT,,0.00,559.0,WeatherDisplay:10.37,2013-08-08 14:28:00,
2013-08-08 09:33:00,73.5,66.2,29.94,ENE,59,10.5,12.7,78,0.00,SCT,,0.00,573.0,WeatherDisplay:10.37,2013-08-08 14:33:00,
2013-08-08 09:38:00,73.7,66.0,29.94,ENE,70,11.1,16.1,77,0.00,SCT,,0.00,591.0,WeatherDisplay:10.37,2013-08-08 14:38:00,
2013-08-08 09:43:00,73.6,65.2,29.94,ENE,67,10.2,11.5,75,0.00,SCT,,0.00,610.0,WeatherDisplay:10.37,2013-08-08 14:43:00,
2013-08-08 09:48:00,74.1,65.3,29.94,NE,43,8.1,11.5,74,0.00,SCT,,0.00,622.0,WeatherDisplay:10.37,2013-08-08 14:48:00,
2013-08-08 09:53:00,74.2,65.0,29.94,East,97,6.9,10.4,73,0.00,SCT,,0.00,622.0,WeatherDisplay:10.37,2013-08-08 14:53:00,
2013-08-08 09:58:00,74.2,65.4,29.94,ENE,62,8.8,12.7,74,0.00,SCT,,0.00,633.0,WeatherDisplay:10.37,2013-08-08 14:58:00,
2013-08-08 10:03:00,74.7,65.9,29.95,ENE,75,8.1,12.7,74,0.00,SCT,,0.00,663.0,WeatherDisplay:10.37,2013-08-08 15:03:00,
2013-08-08 10:08:00,75.1,65.9,29.95,ENE,78,11.3,12.7,73,0.00,SCT,,0.00,712.0,WeatherDisplay:10.37,2013-08-08 15:08:00,
2013-08-08 10:13:00,75.3,64.4,29.95,ENE,77,8.5,15.0,69,0.00,SCT,,0.00,788.0,WeatherDisplay:10.37,2013-08-08 15:13:00,
2013-08-08 10:18:00,75.3,64.4,29.96,ENE,71,8.3,11.5,69,0.00,SCT,,0.00,636.0,WeatherDisplay:10.37,2013-08-08 15:18:00,
2013-08-08 10:23:00,75.1,63.8,29.96,NE,53,9.1,12.7,68,0.00,SCT,,0.00,492.0,WeatherDisplay:10.37,2013-08-08 15:23:00,
2013-08-08 10:28:00,75.3,66.0,29.96,ENE,67,7.1,13.0,73,0.00,SCT,,0.00,522.0,WeatherDisplay:10.37,2013-08-08 15:28:00,
2013-08-08 10:33:00,75.4,64.9,29.97,East,84,7.1,11.5,70,0.00,SCT,,0.00,759.0,WeatherDisplay:10.37,2013-08-08 15:33:00,
2013-08-08 10:38:00,75.6,63.9,29.97,East,82,5.9,8.1,67,0.00,SCT,,0.00,842.0,WeatherDisplay:10.37,2013-08-08 15:38:00,
2013-08-08 10:43:00,75.9,65.4,29.97,ENE,78,9.7,11.5,70,0.00,SCT,,0.00,765.0,WeatherDisplay:10.37,2013-08-08 15:43:00,
2013-08-08 10:48:00,76.2,65.7,29.97,ENE,72,7.3,10.4,70,0.00,SCT,,0.00,758.0,WeatherDisplay:10.37,2013-08-08 15:48:00,
2013-08-08 10:53:00,76.3,66.6,29.97,NNE,17,5.3,8.1,72,0.00,SCT,,0.00,786.0,WeatherDisplay:10.37,2013-08-08 15:53:00,
2013-08-08 10:58:00,76.8,65.9,29.98,ENE,74,6.7,10.0,69,0.00,SCT,,0.00,810.0,WeatherDisplay:10.37,2013-08-08 15:58:00,
2013-08-08 11:03:00,77.1,65.3,29.98,ENE,63,6.2,9.2,67,0.00,CLR,,0.00,886.0,WeatherDisplay:10.37,2013-08-08 16:03:00,
2013-08-08 11:08:00,77.4,67.3,29.97,ENE,76,7.8,11.5,71,0.00,CLR,,0.00,592.0,WeatherDisplay:10.37,2013-08-08 16:08:00,
2013-08-08 11:13:00,77.8,66.0,29.97,East,96,5.7,9.2,67,0.00,CLR,,0.00,816.0,WeatherDisplay:10.37,2013-08-08 16:13:00,
2013-08-08 11:18:00,77.7,66.3,29.97,East,91,6.5,9.2,68,0.00,SCT,,0.00,835.0,WeatherDisplay:10.37,2013-08-08 16:18:00,
2013-08-08 11:23:00,77.6,67.0,29.97,East,85,7.8,11.5,70,0.00,SCT,,0.00,784.0,WeatherDisplay:10.37,2013-08-08 16:23:00,
2013-08-08 11:28:00,77.8,65.5,29.97,NE,34,7.0,11.5,66,0.00,SCT,,0.00,751.0,WeatherDisplay:10.37,2013-08-08 16:28:00,
2013-08-08 11:33:00,77.8,65.5,29.96,ESE,105,6.2,10.4,66,0.00,SCT,,0.00,837.0,WeatherDisplay:10.37,2013-08-08 16:33:00,
2013-08-08 11:38:00,77.4,64.7,29.96,ENE,58,5.6,9.2,65,0.00,SCT,,0.00,821.0,WeatherDisplay:10.37,2013-08-08 16:38:00,
2013-08-08 11:43:00,77.4,64.7,29.96,ENE,78,5.1,9.2,65,0.00,SCT,,0.00,693.0,WeatherDisplay:10.37,2013-08-08 16:43:00,
2013-08-08 11:48:00,77.0,64.3,29.96,ENE,74,5.7,6.9,65,0.00,SCT,,0.00,745.0,WeatherDisplay:10.37,2013-08-08 16:48:00,
2013-08-08 11:53:00,77.5,66.5,29.96,ENE,71,8.0,10.4,69,0.00,SCT,,0.00,846.0,WeatherDisplay:10.37,2013-08-08 16:53:00,
2013-08-08 11:58:00,78.0,66.6,29.96,ENE,61,8.4,12.7,68,0.00,SCT,,0.00,777.0,WeatherDisplay:10.37,2013-08-08 16:58:00,
2013-08-08 12:03:00,78.1,65.4,29.95,East,93,7.7,12.7,65,0.00,SCT,,0.00,791.0,WeatherDisplay:10.37,2013-08-08 17:03:00,
2013-08-08 12:08:00,77.9,65.2,29.95,ESE,104,6.2,9.2,65,0.00,SCT,,0.00,749.0,WeatherDisplay:10.37,2013-08-08 17:08:00,
2013-08-08 12:13:00,78.2,64.6,29.96,ENE,69,5.3,7.0,63,0.00,SCT,,0.00,912.0,WeatherDisplay:10.37,2013-08-08 17:13:00,
2013-08-08 12:18:00,78.0,66.2,29.95,NNE,26,5.8,8.1,67,0.00,SCT,,0.00,983.0,WeatherDisplay:10.37,2013-08-08 17:18:00,
2013-08-08 12:23:00,78.1,66.7,29.95,NE,51,6.8,9.2,68,0.00,SCT,,0.00,926.0,WeatherDisplay:10.37,2013-08-08 17:23:00,
2013-08-08 12:28:00,78.2,64.6,29.95,NE,38,5.7,6.9,63,0.00,SCT,,0.00,874.0,WeatherDisplay:10.37,2013-08-08 17:28:00,
2013-08-08 12:33:00,78.6,65.4,29.95,East,101,8.1,9.2,64,0.00,SCT,,0.00,1009.0,WeatherDisplay:10.37,2013-08-08 17:33:00,
2013-08-08 12:38:00,78.3,64.2,29.95,ENE,61,3.9,6.9,62,0.00,SCT,,0.00,550.0,WeatherDisplay:10.37,2013-08-08 17:38:00,
2013-08-08 12:43:00,78.6,65.8,29.95,NNE,31,6.3,9.2,65,0.00,SCT,,0.00,768.0,WeatherDisplay:10.37,2013-08-08 17:43:00,
2013-08-08 12:48:00,78.2,64.6,29.94,NE,50,8.0,10.4,63,0.00,SCT,,0.00,575.0,WeatherDisplay:10.37,2013-08-08 17:48:00,
2013-08-08 12:53:00,77.7,63.6,29.94,NE,46,5.7,9.2,62,0.00,SCT,,0.00,589.0,WeatherDisplay:10.37,2013-08-08 17:53:00,
2013-08-08 12:58:00,78.7,64.1,29.94,ENE,72,2.3,6.9,61,0.00,SCT,,0.00,714.0,WeatherDisplay:10.37,2013-08-08 17:58:00,
2013-08-08 13:03:00,77.7,64.1,29.94,NE,55,7.4,10.4,63,0.00,CLR,,0.00,570.0,WeatherDisplay:10.37,2013-08-08 18:03:00,
2013-08-08 13:08:00,77.6,65.3,29.94,East,86,6.1,8.1,66,0.00,CLR,,0.00,909.0,WeatherDisplay:10.37,2013-08-08 18:08:00,
2013-08-08 13:13:00,78.0,63.5,29.93,East,80,4.8,10.4,61,0.00,CLR,,0.00,441.0,WeatherDisplay:10.37,2013-08-08 18:13:00,
2013-08-08 13:18:00,77.6,64.0,29.94,ENE,61,5.5,9.2,63,0.00,CLR,,0.00,731.0,WeatherDisplay:10.37,2013-08-08 18:18:00,
2013-08-08 13:23:00,77.6,62.6,29.94,East,86,4.1,8.1,60,0.00,CLR,,0.00,499.0,WeatherDisplay:10.37,2013-08-08 18:23:00,
2013-08-08 13:28:00,77.3,61.9,29.94,ENE,77,4.2,6.9,59,0.00,CLR,,0.00,510.0,WeatherDisplay:10.37,2013-08-08 18:28:00,
2013-08-08 13:33:00,77.8,62.8,29.94,ENE,70,5.0,6.9,60,0.00,CLR,,0.00,577.0,WeatherDisplay:10.37,2013-08-08 18:33:00,
2013-08-08 13:38:00,77.9,64.3,29.93,East,89,4.3,8.1,63,0.00,CLR,,0.00,489.0,WeatherDisplay:10.37,2013-08-08 18:38:00,
2013-08-08 13:43:00,77.3,62.3,29.93,East,92,3.2,6.0,60,0.00,CLR,,0.00,483.0,WeatherDisplay:10.37,2013-08-08 18:43:00,
2013-08-08 13:48:00,77.3,63.7,29.93,East,82,6.3,10.4,63,0.00,CLR,,0.00,554.0,WeatherDisplay:10.37,2013-08-08 18:48:00,
2013-08-08 13:53:00,77.4,62.9,29.93,ENE,72,5.1,8.1,61,0.00,CLR,,0.00,489.0,WeatherDisplay:10.37,2013-08-08 18:53:00,
2013-08-08 13:58:00,77.6,62.6,29.93,ENE,59,6.9,9.2,60,0.00,CLR,,0.00,580.0,WeatherDisplay:10.37,2013-08-08 18:58:00,
2013-08-08 14:03:00,77.6,62.1,29.93,ENE,65,6.6,9.2,59,0.00,CLR,,0.00,527.0,WeatherDisplay:10.37,2013-08-08 19:03:00,
2013-08-08 14:08:00,78.0,63.9,29.93,NE,38,5.2,9.2,62,0.00,CLR,,0.00,615.0,WeatherDisplay:10.37,2013-08-08 19:08:00,
2013-08-08 14:13:00,78.4,63.8,29.93,East,101,2.5,4.6,61,0.00,CLR,,0.00,729.0,WeatherDisplay:10.37,2013-08-08 19:13:00,
2013-08-08 14:18:00,78.4,64.8,29.93,NNE,29,6.3,8.1,63,0.00,CLR,,0.00,603.0,WeatherDisplay:10.37,2013-08-08 19:18:00,
2013-08-08 14:23:00,78.0,63.5,29.93,ENE,76,4.6,9.2,61,0.00,CLR,,0.00,603.0,WeatherDisplay:10.37,2013-08-08 19:23:00,
2013-08-08 14:28:00,77.8,62.8,29.93,NE,50,6.1,9.2,60,0.00,CLR,,0.00,541.0,WeatherDisplay:10.37,2013-08-08 19:28:00,
2013-08-08 14:33:00,77.8,64.6,29.93,ENE,66,6.9,10.4,64,0.00,CLR,,0.00,547.0,WeatherDisplay:10.37,2013-08-08 19:33:00,
2013-08-08 14:38:00,77.4,63.4,29.93,ESE,109,2.7,4.6,62,0.00,CLR,,0.00,540.0,WeatherDisplay:10.37,2013-08-08 19:38:00,
2013-08-08 14:43:00,77.7,64.1,29.93,ENE,68,2.0,4.6,63,0.00,CLR,,0.00,587.0,WeatherDisplay:10.37,2013-08-08 19:43:00,
2013-08-08 14:48:00,78.0,63.9,29.93,ENE,71,6.9,8.1,62,0.00,CLR,,0.00,624.0,WeatherDisplay:10.37,2013-08-08 19:48:00,
2013-08-08 14:53:00,77.9,61.9,29.93,ENE,59,5.2,8.1,58,0.00,CLR,,0.00,504.0,WeatherDisplay:10.37,2013-08-08 19:53:00,
2013-08-08 14:58:00,77.5,62.0,29.93,NE,48,5.6,8.1,59,0.00,CLR,,0.00,492.0,WeatherDisplay:10.37,2013-08-08 19:58:00,
2013-08-08 15:03:00,77.6,61.7,29.93,ENE,63,5.1,6.9,58,0.00,CLR,,0.00,508.0,WeatherDisplay:10.37,2013-08-08 20:03:00,
2013-08-08 15:08:00,77.8,62.3,29.93,NE,53,6.5,9.0,59,0.00,CLR,,0.00,584.0,WeatherDisplay:10.37,2013-08-08 20:08:00,
2013-08-08 15:13:00,78.0,63.0,29.93,ENE,74,5.6,6.9,60,0.00,CLR,,0.00,585.0,WeatherDisplay:10.37,2013-08-08 20:13:00,
2013-08-08 15:18:00,78.2,65.0,29.93,NE,49,5.5,7.0,64,0.00,CLR,,0.00,515.0,WeatherDisplay:10.37,2013-08-08 20:18:00,
2013-08-08 15:23:00,78.4,63.4,29.93,ENE,72,6.2,8.1,60,0.00,CLR,,0.00,649.0,WeatherDisplay:10.37,2013-08-08 20:23:00,
2013-08-08 15:28:00,78.8,61.8,29.93,ENE,74,4.3,10.4,56,0.00,CLR,,0.00,621.0,WeatherDisplay:10.37,2013-08-08 20:28:00,
2013-08-08 15:33:00,78.4,62.9,29.93,ENE,61,7.5,10.4,59,0.00,CLR,,0.00,494.0,WeatherDisplay:10.37,2013-08-08 20:33:00,
2013-08-08 15:38:00,77.8,62.8,29.93,ENE,70,8.0,9.2,60,0.00,CLR,,0.00,536.0,WeatherDisplay:10.37,2013-08-08 20:38:00,
2013-08-08 15:43:00,78.1,63.1,29.93,ENE,70,3.7,6.9,60,0.00,CLR,,0.00,645.0,WeatherDisplay:10.37,2013-08-08 20:43:00,
2013-08-08 15:48:00,78.5,61.5,29.92,ENE,60,7.2,10.4,56,0.00,CLR,,0.00,680.0,WeatherDisplay:10.37,2013-08-08 20:48:00,
2013-08-08 15:53:00,78.9,63.4,29.92,ENE,57,7.7,11.0,59,0.00,CLR,,0.00,647.0,WeatherDisplay:10.37,2013-08-08 20:53:00,
2013-08-08 15:58:00,79.1,63.5,29.92,NE,34,4.0,8.1,59,0.00,CLR,,0.00,694.0,WeatherDisplay:10.37,2013-08-08 20:58:00,
2013-08-08 16:03:00,79.3,62.2,29.92,NE,55,6.3,9.2,56,0.00,CLR,,0.00,708.0,WeatherDisplay:10.37,2013-08-08 21:03:00,
2013-08-08 16:09:00,78.7,61.2,29.92,NE,37,7.6,9.2,55,0.00,CLR,,0.00,338.0,WeatherDisplay:10.37,2013-08-08 21:09:00,
2013-08-08 16:14:00,77.4,61.0,29.92,East,81,7.6,11.5,57,0.00,CLR,,0.00,381.0,WeatherDisplay:10.37,2013-08-08 21:14:00,
2013-08-08 16:19:00,77.3,62.8,29.92,NE,44,7.7,11.5,61,0.00,CLR,,0.00,446.0,WeatherDisplay:10.37,2013-08-08 21:19:00,
2013-08-08 16:24:00,77.5,61.1,29.92,NNE,30,6.6,9.2,57,0.00,CLR,,0.00,515.0,WeatherDisplay:10.37,2013-08-08 21:24:00,
2013-08-08 16:29:00,77.7,61.3,29.92,ENE,67,4.4,10.4,57,0.00,CLR,,0.00,415.0,WeatherDisplay:10.37,2013-08-08 21:29:00,
2013-08-08 16:34:00,77.5,63.0,29.92,NE,42,3.8,8.0,61,0.00,CLR,,0.00,520.0,WeatherDisplay:10.37,2013-08-08 21:34:00,
2013-08-08 16:40:00,77.9,61.4,29.92,NE,36,6.9,11.5,57,0.00,CLR,,0.00,552.0,WeatherDisplay:10.37,2013-08-08 21:40:00,
2013-08-08 16:45:00,77.8,60.8,29.92,NE,43,7.6,11.5,56,0.00,CLR,,0.00,540.0,WeatherDisplay:10.37,2013-08-08 21:45:00,
2013-08-08 16:50:00,77.6,59.6,29.92,NNE,19,6.4,9.2,54,0.00,CLR,,0.00,596.0,WeatherDisplay:10.37,2013-08-08 21:50:00,
2013-08-08 16:55:00,77.6,61.2,29.92,NE,40,5.0,9.0,57,0.00,CLR,,0.00,360.0,WeatherDisplay:10.37,2013-08-08 21:55:00,
2013-08-08 17:00:00,77.5,61.6,29.92,ENE,69,7.4,11.0,58,0.00,CLR,,0.00,506.0,WeatherDisplay:10.37,2013-08-08 22:00:00,
2013-08-08 17:05:00,76.7,60.3,29.92,NE,55,6.0,12.0,57,0.00,CLR,,0.00,216.0,WeatherDisplay:10.37,2013-08-08 22:05:00,
2013-08-08 17:10:00,76.2,59.4,29.92,ENE,65,3.3,8.1,56,0.00,CLR,,0.00,250.0,WeatherDisplay:10.37,2013-08-08 22:10:00,
2013-08-08 17:15:00,76.1,61.2,29.93,ENE,76,2.8,6.9,60,0.00,CLR,,0.00,250.0,WeatherDisplay:10.37,2013-08-08 22:15:00,
2013-08-08 17:20:00,76.7,62.2,29.93,ENE,72,4.0,6.9,61,0.00,CLR,,0.00,255.0,WeatherDisplay:10.37,2013-08-08 22:20:00,
2013-08-08 17:25:00,76.7,59.8,29.93,ENE,75,7.1,9.2,56,0.00,CLR,,0.00,443.0,WeatherDisplay:10.37,2013-08-08 22:25:00,
2013-08-08 17:31:00,76.3,60.4,29.92,ENE,63,6.6,9.0,58,0.00,CLR,,0.00,221.0,WeatherDisplay:10.37,2013-08-08 22:31:00,
2013-08-08 17:36:00,75.9,60.5,29.92,East,86,2.7,6.9,59,0.00,CLR,,0.00,230.0,WeatherDisplay:10.37,2013-08-08 22:36:00,
2013-08-08 17:41:00,75.8,60.4,29.93,East,84,3.2,11.5,59,0.00,CLR,,0.00,267.0,WeatherDisplay:10.37,2013-08-08 22:41:00,
2013-08-08 17:47:00,76.6,60.2,29.93,ENE,65,8.6,10.4,57,0.00,CLR,,0.00,332.0,WeatherDisplay:10.37,2013-08-08 22:47:00,
2013-08-08 17:52:00,76.9,60.0,29.93,ENE,65,7.3,10.4,56,0.00,CLR,,0.00,441.0,WeatherDisplay:10.37,2013-08-08 22:52:00,
2013-08-08 17:57:00,76.5,60.1,29.93,ENE,68,6.0,9.2,57,0.00,CLR,,0.00,265.0,WeatherDisplay:10.37,2013-08-08 22:57:00,
2013-08-08 18:02:00,76.0,61.1,29.93,East,88,7.9,10.0,60,0.00,CLR,,0.00,204.0,WeatherDisplay:10.37,2013-08-08 23:02:00,
2013-08-08 18:08:00,75.4,58.6,29.93,ENE,59,6.0,9.2,56,0.00,CLR,,0.00,151.0,WeatherDisplay:10.37,2013-08-08 23:08:00,
2013-08-08 18:13:00,74.9,58.1,29.93,NE,51,4.0,7.0,56,0.00,CLR,,0.00,227.0,WeatherDisplay:10.37,2013-08-08 23:13:00,
2013-08-08 18:18:00,74.8,59.5,29.93,NE,49,3.2,3.5,59,0.00,CLR,,0.00,190.0,WeatherDisplay:10.37,2013-08-08 23:18:00,
2013-08-08 18:24:00,74.8,59.0,29.93,East,88,6.1,9.2,58,0.00,CLR,,0.00,118.0,WeatherDisplay:10.37,2013-08-08 23:24:00,
2013-08-08 18:29:00,74.3,60.4,29.93,ENE,71,3.7,5.8,62,0.00,CLR,,0.00,105.0,WeatherDisplay:10.37,2013-08-08 23:29:00,
2013-08-08 18:34:00,74.0,59.2,29.93,ENE,73,2.6,4.6,60,0.00,SCT,,0.00,93.0,WeatherDisplay:10.37,2013-08-08 23:34:00,
2013-08-08 18:40:00,73.8,59.5,29.93,East,79,3.0,8.0,61,0.00,SCT,,0.00,90.0,WeatherDisplay:10.37,2013-08-08 23:40:00,
2013-08-08 18:45:00,73.6,59.8,29.93,ENE,76,5.0,7.0,62,0.00,SCT,,0.00,90.0,WeatherDisplay:10.37,2013-08-08 23:45:00,
2013-08-08 18:50:00,73.6,59.3,29.93,East,83,5.5,8.0,61,0.00,SCT,,0.00,100.0,WeatherDisplay:10.37,2013-08-08 23:50:00,
2013-08-08 18:55:00,73.7,59.9,29.94,ENE,71,3.0,7.0,62,0.00,SCT,,0.00,97.0,WeatherDisplay:10.37,2013-08-08 23:55:00,
2013-08-08 19:00:00,73.6,59.8,29.94,ENE,57,3.2,3.5,62,0.00,SCT,,0.00,84.0,WeatherDisplay:10.37,2013-08-09 00:00:00,
2013-08-08 19:05:00,73.5,58.8,29.94,ENE,58,2.4,3.5,60,0.00,SCT,,0.00,67.0,WeatherDisplay:10.37,2013-08-09 00:05:00,
2013-08-08 19:10:00,73.3,59.5,29.94,ENE,66,5.0,9.0,62,0.00,SCT,,0.00,67.0,WeatherDisplay:10.37,2013-08-09 00:10:00,
2013-08-08 19:15:00,73.1,59.3,29.94,ENE,68,3.0,7.0,62,0.00,SCT,,0.00,58.0,WeatherDisplay:10.37,2013-08-09 00:15:00,
2013-08-08 19:20:00,72.8,59.5,29.94,ENE,69,3.2,4.6,63,0.00,SCT,,0.00,46.0,WeatherDisplay:10.37,2013-08-09 00:20:00,
2013-08-08 19:25:00,72.4,59.1,29.94,ENE,68,2.0,4.0,63,0.00,SCT,,0.00,37.0,WeatherDisplay:10.37,2013-08-09 00:25:00,
2013-08-08 19:30:00,72.0,59.2,29.94,ENE,66,3.0,5.0,64,0.00,SCT,,0.00,37.0,WeatherDisplay:10.37,2013-08-09 00:30:00,
2013-08-08 19:35:00,71.8,59.4,29.94,ENE,71,3.0,4.0,65,0.00,CLR,,0.00,33.0,WeatherDisplay:10.37,2013-08-09 00:35:00,
2013-08-08 19:40:00,71.4,59.4,29.94,ENE,68,2.2,3.5,66,0.00,CLR,,0.00,21.0,WeatherDisplay:10.37,2013-08-09 00:40:00,
2013-08-08 19:45:00,71.0,59.1,29.94,ENE,59,2.9,4.6,66,0.00,CLR,,0.00,12.0,WeatherDisplay:10.37,2013-08-09 00:45:00,
2013-08-08 19:50:00,70.8,58.4,29.94,East,82,2.2,4.6,65,0.00,CLR,,0.00,5.0,WeatherDisplay:10.37,2013-08-09 00:50:00,
2013-08-08 19:55:00,70.5,58.6,29.94,ENE,78,1.5,3.5,66,0.00,CLR,,0.00,0.0,WeatherDisplay:10.37,2013-08-09 00:55:00,
2013-08-08 20:00:00,70.1,57.8,29.94,ENE,77,3.9,4.6,65,0.00,CLR,,0.00,0.0,WeatherDisplay:10.37,2013-08-09 01:00:00,
2013-08-08 20:05:00,70.0,57.3,29.94,ENE,78,3.4,3.5,64,0.00,CLR,,0.00,0.0,WeatherDisplay:10.37,2013-08-09 01:05:00,
2013-08-08 20:11:00,69.8,56.6,29.94,ENE,78,3.5,8.1,63,0.00,CLR,,0.00,0.0,WeatherDisplay:10.37,2013-08-09 01:11:00,
2013-08-08 20:16:00,69.6,56.9,29.94,ENE,74,4.0,8.1,64,0.00,CLR,,0.00,0.0,WeatherDisplay:10.37,2013-08-09 01:16:00,
2013-08-08 20:21:00,69.5,56.8,29.94,ENE,76,3.4,4.6,64,0.00,CLR,,0.00,0.0,WeatherDisplay:10.37,2013-08-09 01:21:00,
2013-08-08 20:26:00,69.3,56.6,29.94,ENE,76,2.9,4.6,64,0.00,CLR,,0.00,0.0,WeatherDisplay:10.37,2013-08-09 01:26:00,
2013-08-08 20:32:00,69.1,56.8,29.95,ENE,74,3.4,4.6,65,0.00,CLR,,0.00,0.0,WeatherDisplay:10.37,2013-08-09 01:32:00,
2013-08-08 20:37:00,69.0,56.3,29.95,ENE,65,4.3,7.0,64,0.00,CLR,,0.00,0.0,WeatherDisplay:10.37,2013-08-09 01:37:00,
2013-08-08 20:43:00,68.9,56.6,29.94,ENE,63,2.1,4.6,65,0.00,CLR,,0.00,0.0,WeatherDisplay:10.37,2013-08-09 01:43:00,
2013-08-08 20:48:00,68.5,57.1,29.95,ENE,67,2.9,4.6,67,0.00,CLR,,0.00,0.0,WeatherDisplay:10.37,2013-08-09 01:48:00,
2013-08-08 20:53:00,68.4,56.2,29.95,ENE,70,3.4,4.0,65,0.00,CLR,,0.00,0.0,WeatherDisplay:10.37,2013-08-09 01:53:00,
2013-08-08 20:58:00,68.5,56.3,29.95,ENE,75,4.6,8.1,65,0.00,CLR,,0.00,0.0,WeatherDisplay:10.37,2013-08-09 01:58:00,
2013-08-08 21:03:00,68.7,56.5,29.95,ENE,76,1.6,4.0,65,0.00,CLR,,0.00,0.0,WeatherDisplay:10.37,2013-08-09 02:03:00,
2013-08-08 21:09:00,68.6,56.4,29.95,ENE,64,2.4,4.0,65,0.00,CLR,,0.00,0.0,WeatherDisplay:10.37,2013-08-09 02:09:00,
2013-08-08 21:14:00,68.6,56.8,29.96,ENE,69,3.0,4.6,66,0.00,CLR,,0.00,0.0,WeatherDisplay:10.37,2013-08-09 02:14:00,
2013-08-08 21:19:00,68.3,56.9,29.96,East,84,1.7,3.5,67,0.00,CLR,,0.00,0.0,WeatherDisplay:10.37,2013-08-09 02:19:00,
2013-08-08 21:24:00,68.4,56.2,29.95,East,80,3.6,8.0,65,0.00,CLR,,0.00,0.0,WeatherDisplay:10.37,2013-08-09 02:24:00,
2013-08-08 21:29:00,68.6,56.4,29.95,ENE,61,4.3,8.1,65,0.00,CLR,,0.00,0.0,WeatherDisplay:10.37,2013-08-09 02:29:00,
2013-08-08 21:34:00,68.7,56.0,29.95,NE,49,4.8,8.1,64,0.00,CLR,,0.00,0.0,WeatherDisplay:10.37,2013-08-09 02:34:00,
2013-08-08 21:39:00,69.0,55.9,29.95,NE,53,3.3,6.0,63,0.00,CLR,,0.00,0.0,WeatherDisplay:10.37,2013-08-09 02:39:00,
2013-08-08 21:45:00,69.1,56.0,29.96,ENE,63,3.8,6.9,63,0.00,CLR,,0.00,0.0,WeatherDisplay:10.37,2013-08-09 02:45:00,
2013-08-08 21:50:00,68.9,55.8,29.96,ENE,64,3.0,7.0,63,0.00,CLR,,0.00,0.0,WeatherDisplay:10.37,2013-08-09 02:50:00,
2013-08-08 21:55:00,68.6,55.9,29.96,ENE,65,5.0,8.0,64,0.00,CLR,,0.00,0.0,WeatherDisplay:10.37,2013-08-09 02:55:00,
2013-08-08 22:00:00,68.3,55.6,29.95,ENE,64,5.0,9.0,64,0.00,CLR,,0.00,0.0,WeatherDisplay:10.37,2013-08-09 03:00:00,
2013-08-08 22:05:00,68.2,55.6,29.95,ENE,71,3.0,8.0,64,0.00,CLR,,0.00,0.0,WeatherDisplay:10.37,2013-08-09 03:05:00,
2013-08-08 22:10:00,68.3,56.1,29.95,ENE,72,3.8,8.1,65,0.00,CLR,,0.00,0.0,WeatherDisplay:10.37,2013-08-09 03:10:00,
2013-08-08 22:15:00,68.1,55.9,29.95,ENE,69,5.0,8.0,65,0.00,CLR,,0.00,0.0,WeatherDisplay:10.37,2013-08-09 03:15:00,
2013-08-08 22:20:00,68.1,56.3,29.95,NE,49,3.5,4.6,66,0.00,CLR,,0.00,0.0,WeatherDisplay:10.37,2013-08-09 03:20:00,
2013-08-08 22:25:00,68.1,55.9,29.95,ENE,61,3.0,6.0,65,0.00,CLR,,0.00,0.0,WeatherDisplay:10.37,2013-08-09 03:25:00,
2013-08-08 22:30:00,68.2,56.0,29.95,ENE,71,2.0,7.0,65,0.00,CLR,,0.00,0.0,WeatherDisplay:10.37,2013-08-09 03:30:00,
2013-08-08 22:35:00,68.0,56.6,29.95,ENE,76,1.0,5.0,67,0.00,CLR,,0.00,0.0,WeatherDisplay:10.37,2013-08-09 03:35:00,
2013-08-08 22:40:00,67.7,55.9,29.95,ENE,77,5.0,7.0,66,0.00,CLR,,0.00,0.0,WeatherDisplay:10.37,2013-08-09 03:40:00,
2013-08-08 22:45:00,67.9,55.3,29.95,ENE,74,5.4,9.0,64,0.00,CLR,,0.00,0.0,WeatherDisplay:10.37,2013-08-09 03:45:00,
2013-08-08 22:50:00,68.2,55.6,29.96,ENE,76,3.2,8.1,64,0.00,CLR,,0.00,0.0,WeatherDisplay:10.37,2013-08-09 03:50:00,
2013-08-08 22:55:00,68.1,55.8,29.96,ENE,77,5.0,8.0,65,0.00,CLR,,0.00,0.0,WeatherDisplay:10.37,2013-08-09 03:55:00,
2013-08-08 23:00:00,67.7,55.9,29.96,ENE,73,3.4,5.8,66,0.00,CLR,,0.00,0.0,WeatherDisplay:10.37,2013-08-09 04:00:00,
2013-08-08 23:01:00,67.7,55.9,29.96,ENE,71,3.0,5.8,66,0.00,CLR,,0.00,0.0,WeatherDisplay:10.37,2013-08-09 04:01:00,
2013-08-08 23:02:00,67.7,56.3,29.96,ENE,71,1.9,3.5,67,0.00,CLR,,0.00,0.0,WeatherDisplay:10.37,2013-08-09 04:02:00,
2013-08-08 23:07:00,67.7,56.3,29.96,ENE,74,3.7,6.9,67,0.00,CLR,,0.00,0.0,WeatherDisplay:10.37,2013-08-09 04:07:00,
2013-08-08 23:12:00,67.7,56.3,29.96,NE,53,4.1,6.9,67,0.00,CLR,,0.00,0.0,WeatherDisplay:10.37,2013-08-09 04:12:00,
2013-08-08 23:17:00,67.6,56.2,29.95,ENE,71,3.2,4.6,67,0.00,CLR,,0.00,0.0,WeatherDisplay:10.37,2013-08-09 04:17:00,
2013-08-08 23:22:00,67.3,56.4,29.96,ENE,71,0.9,3.5,68,0.00,CLR,,0.00,0.0,WeatherDisplay:10.37,2013-08-09 04:22:00,
2013-08-08 23:27:00,67.1,56.6,29.96,ENE,59,1.7,3.5,69,0.00,CLR,,0.00,0.0,WeatherDisplay:10.37,2013-08-09 04:27:00,
2013-08-08 23:32:00,67.0,56.5,29.95,ENE,78,2.3,3.5,69,0.00,CLR,,0.00,0.0,WeatherDisplay:10.37,2013-08-09 04:32:00,
2013-08-08 23:37:00,66.7,56.6,29.96,ENE,63,0.1,3.5,70,0.00,CLR,,0.00,0.0,WeatherDisplay:10.37,2013-08-09 04:37:00,
2013-08-08 23:42:00,66.8,56.3,29.96,NE,55,0.4,1.2,69,0.00,CLR,,0.00,0.0,WeatherDisplay:10.37,2013-08-09 04:42:00,
2013-08-08 23:47:00,66.6,56.9,29.96,NE,56,1.8,3.5,71,0.00,CLR,,0.00,0.0,WeatherDisplay:10.37,2013-08-09 04:47:00,
2013-08-08 23:52:00,66.6,56.5,29.96,NE,45,0.0,1.2,70,0.00,CLR,,0.00,0.0,WeatherDisplay:10.37,2013-08-09 04:52:00,
2013-08-08 23:57:00,66.5,56.8,29.96,NE,51,0.4,2.3,71,0.00,CLR,,0.00,0.0,WeatherDisplay:10.37,2013-08-09 04:57:00,